Погода в Токсово

Россия / Санкт-Петербург и Ленинградская область     60°09′36″N   30°31′54″E
темп.,
°C
ветер,
м/с
пор.,
м/с
влажн.,
%
обл.,
%
осадки,
мм/ч
давл.,
гПа
погр.,
м
15 мая, сб
сб1500:00+12юв238498 0.0 101051
03:00+11юв11915 0.0 101013
06:00+11в24877 0.0 1009118
09:00+16в2465100 0.0 1008347
12:00+17всв3563100 0.0 1008386
15:00+20всв455093 0.0 1006978
18:00+16ссв347295 0.0 1004237
21:00+13ссв2692100 2.4 1003204
16 мая, вс
вс1600:00+11с2698100 1.3 1002187
03:00+11ссз1399100 2.5 1002101
06:00+12сз2597100 0.4 1003220
09:00+13з3693100 0.8 1004354
12:00+10зюз3997100 1.4 1006260
15:00+11зюз489492 3.6 1008282
18:00+14зюз478788 0.0 1008447
21:00+11зюз239534 0.1 101064
17 мая, пн
пн1700:00+10ююз00962 0.0 101110
03:00+9юв119583 0.0 101210
06:00+10вюв1388100 0.0 101276
09:00+12в268366 0.0 1012200
12:00+20вюв46567 0.0 10111112
15:00+19в3662100 0.1 1010413
18:00+16в2874100 0.0 1009202
21:00+16в31178100 0.0 1008264
18 мая, вт
вт1800:00+15юв31384100 0.4 1007478
03:00+14в41194100 3.5 1004375
06:00+14вюв399881 0.1 1003313
09:00+16вюв3694100 0.1 1001390
12:00+20вюв388597 1.8 1000885
15:00+26юв5105399 2.0 9972097
18:00+20юв6148049 2.6 995679
21:00+17ююв6128453 3.4 995959
19 мая, ср
ср1900:00+11ююз81493100 0.3 9971097
03:00+11юз71488100 0.4 10011203
06:00+10ююз4109143 0.1 1004612
09:00+13юз357072 0.1 1005594
12:00+16зюз3453100 0.0 10061024
15:00+18з334571 0.0 10051402
18:00+17з3349100 0.0 10041267
21:00+13сз2674100 0.0 1004227